owner,sensor,date,latitude,longitude,vertical_datum,direction_of_sea_water_velocity,sea_water_speed,upward_sea_water_velocity,qcFlag 
TABS,ioos:station:wmo:42049:1,2007-10-01T02:00:00Z,28.3507,-96.0058,2.0,269.9223613,14.84001348,-99999.0,'11111222,11111222,99999999' 
TABS,ioos:station:wmo:42049:1,2007-10-01T02:30:00Z,28.3507,-96.0058,2.0,273.4289761,13.54424232,-99999.0,'11111222,11111222,99999999' 
TABS,ioos:station:wmo:42049:1,2007-10-01T03:00:00Z,28.3507,-96.0058,2.0,269.1489267,13.4714847,-99999.0,'11111222,11111222,99999999' 
TABS,ioos:station:wmo:42049:1,2007-10-01T03:30:00Z,28.3507,-96.0058,2.0,265.0786368,11.19125105,-99999.0,'11111222,11111222,99999999' 
TABS,ioos:station:wmo:42049:1,2007-10-01T04:00:00Z,28.3507,-96.0058,2.0,261.8909254,11.34340778,-99999.0,'11111222,11111222,99999999' 
TABS,ioos:station:wmo:42049:1,2007-10-01T04:30:00Z,28.3507,-96.0058,2.0,262.1055565,7.208307707,-99999.0,'11133222,11111222,99999999' 
TABS,ioos:station:wmo:42049:1,2007-10-01T05:00:00Z,28.3507,-96.0058,2.0,239.9089831,9.45409964,-99999.0,'11133222,11111222,99999999' 
TABS,ioos:station:wmo:42049:1,2007-10-01T05:30:00Z,28.3507,-96.0058,2.0,237.7698989,10.55659983,-99999.0,'11111222,11111222,99999999' 
TABS,ioos:station:wmo:42049:1,2007-10-01T06:00:00Z,28.3507,-96.0058,2.0,246.0825988,11.51910587,-99999.0,'11111222,11111222,99999999' 
TABS,ioos:station:wmo:42049:1,2007-10-01T06:30:00Z,28.3507,-96.0058,2.0,246.9645885,11.04028985,-99999.0,'11111222,11111222,99999999' 
TABS,ioos:station:wmo:42049:1,2007-10-01T07:00:00Z,28.3507,-96.0058,2.0,247.0560663,10.62016949,-99999.0,'11111222,11111222,99999999' 
TABS,ioos:station:wmo:42049:1,2007-10-01T07:30:00Z,28.3507,-96.0058,2.0,242.3484148,9.200836918,-99999.0,'11133222,11111222,99999999' 
TABS,ioos:station:wmo:42049:1,2007-10-01T08:00:00Z,28.3507,-96.0058,2.0,238.7235656,11.32593484,-99999.0,'11111222,11111222,99999999' 
TABS,ioos:station:wmo:42049:1,2007-10-01T08:30:00Z,28.3507,-96.0058,2.0,240.8940558,12.0060693,-99999.0,'11111222,11111222,99999999' 
TABS,ioos:station:wmo:42049:1,2007-10-01T09:00:00Z,28.3507,-96.0058,2.0,231.9667208,11.13429387,-99999.0,'11111222,11111222,99999999' 
TABS,ioos:station:wmo:42049:1,2007-10-01T09:30:00Z,28.3507,-96.0058,2.0,230.591229,14.22395866,-99999.0,'11111222,11111222,99999999' 
TABS,ioos:station:wmo:42049:1,2007-10-01T10:00:00Z,28.3507,-96.0058,2.0,234.1782929,12.67812289,-99999.0,'11111222,11111222,99999999' 
TABS,ioos:station:wmo:42049:1,2007-10-01T10:30:00Z,28.3507,-96.0058,2.0,238.3797739,12.13089032,-99999.0,'11111222,11111222,99999999' 
TABS,ioos:station:wmo:42049:1,2007-10-01T11:00:00Z,28.3507,-96.0058,2.0,224.208954,11.27235557,-99999.0,'11111222,11111222,99999999' 
TABS,ioos:station:wmo:42049:1,2007-10-01T11:30:00Z,28.3507,-96.0058,2.0,227.2284441,13.09137884,-99999.0,'11111222,11111222,99999999' 
TABS,ioos:station:wmo:42049:1,2007-10-01T12:00:00Z,28.3507,-96.0058,2.0,224.6899811,11.7734999,-99999.0,'11111222,11111222,99999999' 
TABS,ioos:station:wmo:42049:1,2007-10-01T12:30:00Z,28.3507,-96.0058,2.0,223.021855,19.25892001,-99999.0,'11111222,11111222,99999999' 
TABS,ioos:station:wmo:42049:1,2007-10-01T13:00:00Z,28.3507,-96.0058,2.0,224.059779,18.53576273,-99999.0,'11111222,11111222,99999999' 
TABS,ioos:station:wmo:42049:1,2007-10-01T13:30:00Z,28.3507,-96.0058,2.0,225.7126973,19.31965321,-99999.0,'11111222,11111222,99999999' 
TABS,ioos:station:wmo:42049:1,2007-10-01T14:00:00Z,28.3507,-96.0058,2.0,229.1353762,23.62939906,-99999.0,'11111222,11111222,99999999' 
TABS,ioos:station:wmo:42049:1,2007-10-01T14:30:00Z,28.3507,-96.0058,2.0,243.8627635,41.29238429,-99999.0,'11111222,11111222,99999999' 
TABS,ioos:station:wmo:42049:1,2007-10-01T15:00:00Z,28.3507,-96.0058,2.0,242.2560211,39.35417767,-99999.0,'11111222,11111222,99999999' 
TABS,ioos:station:wmo:42049:1,2007-10-01T15:30:00Z,28.3507,-96.0058,2.0,239.7150222,39.50061392,-99999.0,'11111222,11111222,99999999' 
TABS,ioos:station:wmo:42049:1,2007-10-01T16:00:00Z,28.3507,-96.0058,2.0,246.1925878,41.91668999,-99999.0,'11111222,11111222,99999999' 
TABS,ioos:station:wmo:42049:1,2007-10-01T16:30:00Z,28.3507,-96.0058,2.0,242.4301629,41.07393577,-99999.0,'11111222,11111222,99999999' 
TABS,ioos:station:wmo:42049:1,2007-10-01T17:00:00Z,28.3507,-96.0058,2.0,245.3073976,43.92642257,-99999.0,'11111222,11111222,99999999' 
TABS,ioos:station:wmo:42049:1,2007-10-01T17:30:00Z,28.3507,-96.0058,2.0,246.9335773,42.57359863,-99999.0,'11111222,11111222,99999999' 
TABS,ioos:station:wmo:42049:1,2007-10-01T18:00:00Z,28.3507,-96.0058,2.0,248.8583192,43.19745942,-99999.0,'11111222,11111222,99999999' 
TABS,ioos:station:wmo:42049:1,2007-10-01T18:30:00Z,28.3507,-96.0058,2.0,248.8456865,42.39695272,-99999.0,'11111222,11111222,99999999' 
TABS,ioos:station:wmo:42049:1,2007-10-01T19:00:00Z,28.3507,-96.0058,2.0,253.2249519,43.65775991,-99999.0,'11111222,11111222,99999999' 
TABS,ioos:station:wmo:42049:1,2007-10-01T19:30:00Z,28.3507,-96.0058,2.0,252.8203575,38.52895664,-99999.0,'11111222,11111222,99999999' 
TABS,ioos:station:wmo:42049:1,2007-10-01T20:00:00Z,28.3507,-96.0058,2.0,260.2443869,37.94871408,-99999.0,'11111222,11111222,99999999' 
TABS,ioos:station:wmo:42049:1,2007-10-01T20:30:00Z,28.3507,-96.0058,2.0,254.7542121,36.2040785,-99999.0,'11111222,11111222,99999999' 
TABS,ioos:station:wmo:42049:1,2007-10-01T21:00:00Z,28.3507,-96.0058,2.0,258.7160563,38.33090268,-99999.0,'11111222,11111222,99999999' 
TABS,ioos:station:wmo:42049:1,2007-10-01T21:30:00Z,28.3507,-96.0058,2.0,260.6768868,38.45796927,-99999.0,'11111222,11111222,99999999' 
TABS,ioos:station:wmo:42049:1,2007-10-01T22:00:00Z,28.3507,-96.0058,2.0,270.7533388,48.70420516,-99999.0,'11111222,11111222,99999999' 
TABS,ioos:station:wmo:42049:1,2007-10-01T22:30:00Z,28.3507,-96.0058,2.0,266.2227061,45.08792521,-99999.0,'11111222,11111222,99999999' 
TABS,ioos:station:wmo:42049:1,2007-10-01T23:00:00Z,28.3507,-96.0058,2.0,266.993298,46.33376523,-99999.0,'11111222,11111222,99999999' 
TABS,ioos:station:wmo:42049:1,2007-10-01T23:30:00Z,28.3507,-96.0058,2.0,263.259885,44.81972445,-99999.0,'11111222,11111222,99999999' 
TABS,ioos:station:wmo:42049:1,2007-10-02T00:00:00Z,28.3507,-96.0058,2.0,265.3129686,38.92012975,-99999.0,'11111222,11111222,99999999' 
TABS,ioos:station:wmo:42049:1,2007-10-02T00:30:00Z,28.3507,-96.0058,2.0,266.0850103,34.12962643,-99999.0,'11111222,11111222,99999999' 
TABS,ioos:station:wmo:42049:1,2007-10-02T01:00:00Z,28.3507,-96.0058,2.0,261.9592193,34.31734838,-99999.0,'11111222,11111222,99999999' 
TABS,ioos:station:wmo:42049:1,2007-10-02T01:30:00Z,28.3507,-96.0058,2.0,258.9429745,29.72169073,-99999.0,'11111222,11111222,99999999' 
TABS,ioos:station:wmo:42049:1,2007-10-02T02:00:00Z,28.3507,-96.0058,2.0,260.4981627,28.89641673,-99999.0,'11111222,11111222,99999999' 
TABS,ioos:station:wmo:42049:1,2007-10-02T02:30:00Z,28.3507,-96.0058,2.0,256.2872944,27.88476645,-99999.0,'11111222,11111222,99999999' 
TABS,ioos:station:wmo:42049:1,2007-10-02T03:00:00Z,28.3507,-96.0058,2.0,252.8319744,25.30757397,-99999.0,'11111222,11111222,99999999' 
TABS,ioos:station:wmo:42049:1,2007-10-02T03:30:00Z,28.3507,-96.0058,2.0,256.4470006,21.550058,-99999.0,'11111222,11111222,99999999' 
TABS,ioos:station:wmo:42049:1,2007-10-02T04:00:00Z,28.3507,-96.0058,2.0,249.7952333,22.12119346,-99999.0,'11111222,11111222,99999999' 
TABS,ioos:station:wmo:42049:1,2007-10-02T04:30:00Z,28.3507,-96.0058,2.0,246.7686794,30.22018034,-99999.0,'11111222,11111222,99999999' 
TABS,ioos:station:wmo:42049:1,2007-10-02T05:00:00Z,28.3507,-96.0058,2.0,243.4901475,32.28436464,-99999.0,'11111222,11111222,99999999' 
TABS,ioos:station:wmo:42049:1,2007-10-02T05:30:00Z,28.3507,-96.0058,2.0,239.7064481,32.53207955,-99999.0,'11111222,11111222,99999999' 
TABS,ioos:station:wmo:42049:1,2007-10-02T06:00:00Z,28.3507,-96.0058,2.0,240.8294712,31.78053807,-99999.0,'11111222,11111222,99999999' 
TABS,ioos:station:wmo:42049:1,2007-10-02T06:30:00Z,28.3507,-96.0058,2.0,238.5991941,31.72644481,-99999.0,'11111222,11111222,99999999' 
TABS,ioos:station:wmo:42049:1,2007-10-02T07:00:00Z,28.3507,-96.0058,2.0,235.6234477,30.10851209,-99999.0,'11111222,11111222,99999999' 
TABS,ioos:station:wmo:42049:1,2007-10-02T07:30:00Z,28.3507,-96.0058,2.0,233.8045033,28.87200201,-99999.0,'11111222,11111222,99999999' 
TABS,ioos:station:wmo:42049:1,2007-10-02T08:00:00Z,28.3507,-96.0058,2.0,238.1636928,23.65925612,-99999.0,'11111222,11111222,99999999' 
TABS,ioos:station:wmo:42049:1,2007-10-02T08:30:00Z,28.3507,-96.0058,2.0,230.8551611,19.75356424,-99999.0,'11111222,11111222,99999999' 
TABS,ioos:station:wmo:42049:1,2007-10-02T09:00:00Z,28.3507,-96.0058,2.0,226.063407,18.66376436,-99999.0,'11111222,11111222,99999999' 
TABS,ioos:station:wmo:42049:1,2007-10-02T09:30:00Z,28.3507,-96.0058,2.0,224.2376777,22.86278417,-99999.0,'11111222,11111222,99999999' 
TABS,ioos:station:wmo:42049:1,2007-10-02T10:00:00Z,28.3507,-96.0058,2.0,227.5150483,17.72303021,-99999.0,'11111222,11111222,99999999' 
TABS,ioos:station:wmo:42049:1,2007-10-02T10:30:00Z,28.3507,-96.0058,2.0,227.8954395,18.19587865,-99999.0,'11111222,11111222,99999999' 
TABS,ioos:station:wmo:42049:1,2007-10-02T11:00:00Z,28.3507,-96.0058,2.0,221.1856184,12.96877789,-99999.0,'11111222,11111222,99999999' 
TABS,ioos:station:wmo:42049:1,2007-10-02T11:30:00Z,28.3507,-96.0058,2.0,216.3527728,17.07269457,-99999.0,'11111222,11111222,99999999' 
TABS,ioos:station:wmo:42049:1,2007-10-02T12:00:00Z,28.3507,-96.0058,2.0,214.3600589,19.9150998,-99999.0,'11111222,11111222,99999999' 
TABS,ioos:station:wmo:42049:1,2007-10-02T12:30:00Z,28.3507,-96.0058,2.0,206.5815661,15.26340067,-99999.0,'11111222,11111222,99999999' 
TABS,ioos:station:wmo:42049:1,2007-10-02T13:00:00Z,28.3507,-96.0058,2.0,204.6704769,16.09954347,-99999.0,'11111222,11111222,99999999' 
TABS,ioos:station:wmo:42049:1,2007-10-02T13:30:00Z,28.3507,-96.0058,2.0,212.0289351,20.382701,-99999.0,'11111222,11111222,99999999' 
TABS,ioos:station:wmo:42049:1,2007-10-02T14:00:00Z,28.3507,-96.0058,2.0,206.3706391,21.11754721,-99999.0,'11111222,11111222,99999999' 
TABS,ioos:station:wmo:42049:1,2007-10-02T14:30:00Z,28.3507,-96.0058,2.0,205.1676008,21.09239199,-99999.0,'11111222,11111222,99999999' 
TABS,ioos:station:wmo:42049:1,2007-10-02T15:00:00Z,28.3507,-96.0058,2.0,204.7807991,20.25517712,-99999.0,'11111222,11111222,99999999' 
TABS,ioos:station:wmo:42049:1,2007-10-02T15:30:00Z,28.3507,-96.0058,2.0,207.4142399,16.28930938,-99999.0,'11111222,11111222,99999999' 
TABS,ioos:station:wmo:42049:1,2007-10-02T16:00:00Z,28.3507,-96.0058,2.0,216.2499606,17.19900579,-99999.0,'11111222,11111222,99999999' 
TABS,ioos:station:wmo:42049:1,2007-10-02T16:30:00Z,28.3507,-96.0058,2.0,227.3348209,15.27204636,-99999.0,'11111222,11111222,99999999' 
TABS,ioos:station:wmo:42049:1,2007-10-02T17:00:00Z,28.3507,-96.0058,2.0,237.7484065,13.58611791,-99999.0,'11111222,11111222,99999999' 
TABS,ioos:station:wmo:42049:1,2007-10-02T17:30:00Z,28.3507,-96.0058,2.0,238.4880648,17.21924505,-99999.0,'11111222,11111222,99999999' 
TABS,ioos:station:wmo:42049:1,2007-10-02T18:00:00Z,28.3507,-96.0058,2.0,232.7858921,12.99623407,-99999.0,'11111222,11111222,99999999' 
TABS,ioos:station:wmo:42049:1,2007-10-02T18:30:00Z,28.3507,-96.0058,2.0,265.7985699,40.67929817,-99999.0,'11111222,11111222,99999999' 
TABS,ioos:station:wmo:42049:1,2007-10-02T19:00:00Z,28.3507,-96.0058,2.0,268.4683615,47.52697129,-99999.0,'11111222,11111222,99999999' 
TABS,ioos:station:wmo:42049:1,2007-10-02T19:30:00Z,28.3507,-96.0058,2.0,257.7581983,45.84232106,-99999.0,'11111222,11111222,99999999' 
TABS,ioos:station:wmo:42049:1,2007-10-02T20:00:00Z,28.3507,-96.0058,2.0,268.1482944,45.19358915,-99999.0,'11111222,11111222,99999999' 
TABS,ioos:station:wmo:42049:1,2007-10-02T20:30:00Z,28.3507,-96.0058,2.0,265.6744123,41.23744051,-99999.0,'11111222,11111222,99999999' 
TABS,ioos:station:wmo:42049:1,2007-10-02T21:00:00Z,28.3507,-96.0058,2.0,271.8997279,40.73237778,-99999.0,'11111222,11111222,99999999' 
TABS,ioos:station:wmo:42049:1,2007-10-02T21:30:00Z,28.3507,-96.0058,2.0,270.8869647,39.4247194,-99999.0,'11111222,11111222,99999999' 
TABS,ioos:station:wmo:42049:1,2007-10-02T22:00:00Z,28.3507,-96.0058,2.0,265.8786412,38.12857852,-99999.0,'11111222,11111222,99999999' 
TABS,ioos:station:wmo:42049:1,2007-10-02T22:30:00Z,28.3507,-96.0058,2.0,265.4672334,36.82515716,-99999.0,'11111222,11111222,99999999' 
TABS,ioos:station:wmo:42049:1,2007-10-02T23:00:00Z,28.3507,-96.0058,2.0,270.4201002,34.1309156,-99999.0,'11111222,11111222,99999999' 
TABS,ioos:station:wmo:42049:1,2007-10-02T23:30:00Z,28.3507,-96.0058,2.0,274.6032073,34.01971487,-99999.0,'11111222,11111222,99999999' 
TABS,ioos:station:wmo:42049:1,2007-10-03T00:00:00Z,28.3507,-96.0058,2.0,265.0405409,34.82034176,-99999.0,'11111222,11111222,99999999' 
TABS,ioos:station:wmo:42049:1,2007-10-03T00:30:00Z,28.3507,-96.0058,2.0,270.7995868,20.79202251,-99999.0,'11111222,11111222,99999999' 
TABS,ioos:station:wmo:42049:1,2007-10-03T01:00:00Z,28.3507,-96.0058,2.0,257.5841691,46.04683377,-99999.0,'11111222,11111222,99999999' 
TABS,ioos:station:wmo:42049:1,2007-10-03T01:30:00Z,28.3507,-96.0058,2.0,258.6160619,47.3209013,-99999.0,'11111222,11111222,99999999' 
TABS,ioos:station:wmo:42049:1,2007-10-03T02:00:00Z,28.3507,-96.0058,2.0,261.1228556,49.70534177,-99999.0,'11111222,11111222,99999999' 
TABS,ioos:station:wmo:42049:1,2007-10-03T02:30:00Z,28.3507,-96.0058,2.0,253.4151833,48.278373,-99999.0,'11111222,11111222,99999999' 
TABS,ioos:station:wmo:42049:1,2007-10-03T03:00:00Z,28.3507,-96.0058,2.0,252.8635168,53.01339453,-99999.0,'11111222,11111222,99999999' 
TABS,ioos:station:wmo:42049:1,2007-10-03T03:30:00Z,28.3507,-96.0058,2.0,247.2717291,54.66471257,-99999.0,'11111222,11111222,99999999' 
TABS,ioos:station:wmo:42049:1,2007-10-03T04:00:00Z,28.3507,-96.0058,2.0,243.6715701,47.57498923,-99999.0,'11111222,11111222,99999999' 
TABS,ioos:station:wmo:42049:1,2007-10-03T04:30:00Z,28.3507,-96.0058,2.0,242.2522961,45.29896467,-99999.0,'11111222,11111222,99999999' 
TABS,ioos:station:wmo:42049:1,2007-10-03T05:00:00Z,28.3507,-96.0058,2.0,237.1404848,43.6067942,-99999.0,'11111222,11111222,99999999' 
TABS,ioos:station:wmo:42049:1,2007-10-03T05:30:00Z,28.3507,-96.0058,2.0,237.6791101,42.58817911,-99999.0,'11111222,11111222,99999999' 
TABS,ioos:station:wmo:42049:1,2007-10-03T06:00:00Z,28.3507,-96.0058,2.0,237.1805719,44.3367624,-99999.0,'11111222,11111222,99999999' 
TABS,ioos:station:wmo:42049:1,2007-10-03T06:30:00Z,28.3507,-96.0058,2.0,232.277472,42.75673046,-99999.0,'11111222,11111222,99999999' 
TABS,ioos:station:wmo:42049:1,2007-10-03T07:00:00Z,28.3507,-96.0058,2.0,230.2236197,42.24833488,-99999.0,'11111222,11111222,99999999' 
TABS,ioos:station:wmo:42049:1,2007-10-03T07:30:00Z,28.3507,-96.0058,2.0,230.0885843,42.40972766,-99999.0,'11111222,11111222,99999999' 
TABS,ioos:station:wmo:42049:1,2007-10-03T08:00:00Z,28.3507,-96.0058,2.0,229.8436734,41.03146597,-99999.0,'11111222,11111222,99999999' 
TABS,ioos:station:wmo:42049:1,2007-10-03T08:30:00Z,28.3507,-96.0058,2.0,225.1256512,41.81132502,-99999.0,'11111222,11111222,99999999' 
TABS,ioos:station:wmo:42049:1,2007-10-03T09:00:00Z,28.3507,-96.0058,2.0,220.1006033,42.22712398,-99999.0,'11111222,11111222,99999999' 
TABS,ioos:station:wmo:42049:1,2007-10-03T09:30:00Z,28.3507,-96.0058,2.0,217.9147876,43.857297,-99999.0,'11111222,11111222,99999999' 
TABS,ioos:station:wmo:42049:1,2007-10-03T10:00:00Z,28.3507,-96.0058,2.0,215.7873122,47.43646277,-99999.0,'11111222,11111222,99999999' 
TABS,ioos:station:wmo:42049:1,2007-10-03T10:30:00Z,28.3507,-96.0058,2.0,213.9923873,46.73691689,-99999.0,'11111222,11111222,99999999' 
TABS,ioos:station:wmo:42049:1,2007-10-03T11:00:00Z,28.3507,-96.0058,2.0,208.8355675,49.09788692,-99999.0,'11111222,11111222,99999999' 
TABS,ioos:station:wmo:42049:1,2007-10-03T11:30:00Z,28.3507,-96.0058,2.0,210.0628908,48.22792967,-99999.0,'11111222,11111222,99999999' 
TABS,ioos:station:wmo:42049:1,2007-10-03T12:00:00Z,28.3507,-96.0058,2.0,212.0024,22.511175,-99999.0,'11111222,11111222,99999999' 
TABS,ioos:station:wmo:42049:1,2007-10-03T12:30:00Z,28.3507,-96.0058,2.0,206.0238364,50.21090818,-99999.0,'11111222,11111222,99999999' 
TABS,ioos:station:wmo:42049:1,2007-10-03T13:00:00Z,28.3507,-96.0058,2.0,206.2157444,52.85715562,-99999.0,'11111222,11111222,99999999' 
TABS,ioos:station:wmo:42049:1,2007-10-03T13:30:00Z,28.3507,-96.0058,2.0,206.6296096,51.38040288,-99999.0,'11111222,11111222,99999999' 
TABS,ioos:station:wmo:42049:1,2007-10-03T14:00:00Z,28.3507,-96.0058,2.0,207.5370339,52.71171122,-99999.0,'11111222,11111222,99999999' 
TABS,ioos:station:wmo:42049:1,2007-10-03T14:30:00Z,28.3507,-96.0058,2.0,210.2057779,52.39396912,-99999.0,'11111222,11111222,99999999' 
TABS,ioos:station:wmo:42049:1,2007-10-03T15:00:00Z,28.3507,-96.0058,2.0,209.3914527,56.95038981,-99999.0,'11111222,11111222,99999999' 
TABS,ioos:station:wmo:42049:1,2007-10-03T15:30:00Z,28.3507,-96.0058,2.0,211.0379038,56.76779457,-99999.0,'11111222,11111222,99999999' 
TABS,ioos:station:wmo:42049:1,2007-10-03T16:00:00Z,28.3507,-96.0058,2.0,214.2740237,63.37501874,-99999.0,'11111222,11111222,99999999' 
TABS,ioos:station:wmo:42049:1,2007-10-03T16:30:00Z,28.3507,-96.0058,2.0,216.2076233,64.39629803,-99999.0,'11111222,11111222,99999999' 
TABS,ioos:station:wmo:42049:1,2007-10-03T17:00:00Z,28.3507,-96.0058,2.0,213.4198153,62.98413292,-99999.0,'11111222,11111222,99999999' 
TABS,ioos:station:wmo:42049:1,2007-10-03T17:30:00Z,28.3507,-96.0058,2.0,213.5162998,56.79323991,-99999.0,'11111222,11111222,99999999' 
TABS,ioos:station:wmo:42049:1,2007-10-03T18:00:00Z,28.3507,-96.0058,2.0,210.4460067,54.3089569,-99999.0,'11111222,11111222,99999999' 
TABS,ioos:station:wmo:42049:1,2007-10-03T18:30:00Z,28.3507,-96.0058,2.0,215.1111784,54.22753636,-99999.0,'11111222,11111222,99999999' 
TABS,ioos:station:wmo:42049:1,2007-10-03T19:00:00Z,28.3507,-96.0058,2.0,213.9439063,45.02268428,-99999.0,'11111222,11111222,99999999' 
TABS,ioos:station:wmo:42049:1,2007-10-03T19:30:00Z,28.3507,-96.0058,2.0,216.8438012,39.97400405,-99999.0,'11111222,11111222,99999999' 
TABS,ioos:station:wmo:42049:1,2007-10-03T20:00:00Z,28.3507,-96.0058,2.0,220.1577593,46.41040616,-99999.0,'11111222,11111222,99999999' 
TABS,ioos:station:wmo:42049:1,2007-10-03T20:30:00Z,28.3507,-96.0058,2.0,218.2830348,41.59465591,-99999.0,'11111222,11111222,99999999' 
TABS,ioos:station:wmo:42049:1,2007-10-03T21:00:00Z,28.3507,-96.0058,2.0,219.3701375,30.34689605,-99999.0,'11111222,11111222,99999999' 
TABS,ioos:station:wmo:42049:1,2007-10-03T21:30:00Z,28.3507,-96.0058,2.0,217.6702278,24.33237555,-99999.0,'11111222,11111222,99999999' 
TABS,ioos:station:wmo:42049:1,2007-10-03T22:00:00Z,28.3507,-96.0058,2.0,234.2007131,17.33502812,-99999.0,'11111222,11111222,99999999' 
TABS,ioos:station:wmo:42049:1,2007-10-03T22:30:00Z,28.3507,-96.0058,2.0,255.4611812,15.49619631,-99999.0,'11111222,11111222,99999999' 
TABS,ioos:station:wmo:42049:1,2007-10-03T23:00:00Z,28.3507,-96.0058,2.0,262.3352302,17.92009208,-99999.0,'11111222,11111222,99999999' 
TABS,ioos:station:wmo:42049:1,2007-10-03T23:30:00Z,28.3507,-96.0058,2.0,266.4907363,15.35879227,-99999.0,'11111222,11111222,99999999' 
TABS,ioos:station:wmo:42049:1,2007-10-04T00:00:00Z,28.3507,-96.0058,2.0,274.0750133,11.11810236,-99999.0,'11111222,11111222,99999999' 
TABS,ioos:station:wmo:42049:1,2007-10-04T00:30:00Z,28.3507,-96.0058,2.0,263.0092757,20.0490299,-99999.0,'11111222,11111222,99999999' 
TABS,ioos:station:wmo:42049:1,2007-10-04T01:00:00Z,28.3507,-96.0058,2.0,272.6915375,17.03879104,-99999.0,'11111222,11111222,99999999' 
TABS,ioos:station:wmo:42049:1,2007-10-04T01:30:00Z,28.3507,-96.0058,2.0,276.173786,14.41358387,-99999.0,'11111222,11111222,99999999' 
TABS,ioos:station:wmo:42049:1,2007-10-04T02:00:00Z,28.3507,-96.0058,2.0,280.8348553,12.28906018,-99999.0,'11111222,11111222,99999999' 
TABS,ioos:station:wmo:42049:1,2007-10-04T02:30:00Z,28.3507,-96.0058,2.0,291.000718,13.28222873,-99999.0,'11111222,11111222,99999999' 
TABS,ioos:station:wmo:42049:1,2007-10-04T03:00:00Z,28.3507,-96.0058,2.0,305.4712729,10.97727197,-99999.0,'11111222,11111222,99999999' 
TABS,ioos:station:wmo:42049:1,2007-10-04T03:30:00Z,28.3507,-96.0058,2.0,308.1801947,11.37297235,-99999.0,'11111222,11111222,99999999' 
TABS,ioos:station:wmo:42049:1,2007-10-04T04:00:00Z,28.3507,-96.0058,2.0,316.1214181,14.45602988,-99999.0,'11111222,11111222,99999999' 
TABS,ioos:station:wmo:42049:1,2007-10-04T04:30:00Z,28.3507,-96.0058,2.0,325.8760956,15.74006989,-99999.0,'11111222,11111222,99999999' 
TABS,ioos:station:wmo:42049:1,2007-10-04T05:00:00Z,28.3507,-96.0058,2.0,325.2400664,17.82007856,-99999.0,'11111222,11111222,99999999' 
TABS,ioos:station:wmo:42049:1,2007-10-04T05:30:00Z,28.3507,-96.0058,2.0,331.0982133,17.87657965,-99999.0,'11111222,11111222,99999999' 
TABS,ioos:station:wmo:42049:1,2007-10-04T06:00:00Z,28.3507,-96.0058,2.0,330.0294771,17.61554995,-99999.0,'11111222,11111222,99999999' 
TABS,ioos:station:wmo:42049:1,2007-10-04T06:30:00Z,28.3507,-96.0058,2.0,328.5336518,17.58614227,-99999.0,'11111222,11111222,99999999' 
TABS,ioos:station:wmo:42049:1,2007-10-04T07:00:00Z,28.3507,-96.0058,2.0,337.7512388,19.2534802,-99999.0,'11111222,11111222,99999999' 
TABS,ioos:station:wmo:42049:1,2007-10-04T07:30:00Z,28.3507,-96.0058,2.0,342.1739548,15.77749346,-99999.0,'11111222,11111222,99999999' 
TABS,ioos:station:wmo:42049:1,2007-10-04T08:00:00Z,28.3507,-96.0058,2.0,341.9063462,13.81307352,-99999.0,'11111222,11111222,99999999' 
TABS,ioos:station:wmo:42049:1,2007-10-04T08:30:00Z,28.3507,-96.0058,2.0,339.3955546,11.02528004,-99999.0,'11111222,11111222,99999999' 
TABS,ioos:station:wmo:42049:1,2007-10-04T09:00:00Z,28.3507,-96.0058,2.0,337.4339499,9.87615816,-99999.0,'11133222,11111222,99999999' 
TABS,ioos:station:wmo:42049:1,2007-10-04T09:30:00Z,28.3507,-96.0058,2.0,346.0204209,4.925900933,-99999.0,'11133222,11111222,99999999' 
TABS,ioos:station:wmo:42049:1,2007-10-04T10:00:00Z,28.3507,-96.0058,2.0,346.9132731,7.905320993,-99999.0,'11133222,11111222,99999999' 
TABS,ioos:station:wmo:42049:1,2007-10-04T10:30:00Z,28.3507,-96.0058,2.0,341.9804833,5.236869294,-99999.0,'11133222,11111222,99999999' 
TABS,ioos:station:wmo:42049:1,2007-10-04T11:00:00Z,28.3507,-96.0058,2.0,355.0864232,6.654457153,-99999.0,'11133222,11111222,99999999' 
TABS,ioos:station:wmo:42049:1,2007-10-04T11:30:00Z,28.3507,-96.0058,2.0,327.2650607,5.658727772,-99999.0,'11133222,11111222,99999999' 
TABS,ioos:station:wmo:42049:1,2007-10-04T12:00:00Z,28.3507,-96.0058,2.0,317.1708319,4.854235264,-99999.0,'11133222,11111222,99999999' 
TABS,ioos:station:wmo:42049:1,2007-10-04T12:30:00Z,28.3507,-96.0058,2.0,320.2437729,4.487694285,-99999.0,'11133222,11111222,99999999' 
TABS,ioos:station:wmo:42049:1,2007-10-04T13:00:00Z,28.3507,-96.0058,2.0,314.6802316,6.328704449,-99999.0,'11133222,11111222,99999999' 
TABS,ioos:station:wmo:42049:1,2007-10-04T13:30:00Z,28.3507,-96.0058,2.0,305.1718634,4.183837951,-99999.0,'11133222,11111222,99999999' 
TABS,ioos:station:wmo:42049:1,2007-10-04T14:00:00Z,28.3507,-96.0058,2.0,293.3665859,4.488073083,-99999.0,'11133222,11111222,99999999' 
TABS,ioos:station:wmo:42049:1,2007-10-04T14:30:00Z,28.3507,-96.0058,2.0,260.8260651,3.261717339,-99999.0,'11133222,11111222,99999999' 
TABS,ioos:station:wmo:42049:1,2007-10-04T15:00:00Z,28.3507,-96.0058,2.0,206.8355865,6.623307331,-99999.0,'11133222,11111222,99999999' 
TABS,ioos:station:wmo:42049:1,2007-10-04T15:30:00Z,28.3507,-96.0058,2.0,220.1940943,9.622193097,-99999.0,'11133222,11111222,99999999' 
TABS,ioos:station:wmo:42049:1,2007-10-04T16:00:00Z,28.3507,-96.0058,2.0,230.4143737,11.98946204,-99999.0,'11111222,11111222,99999999' 
TABS,ioos:station:wmo:42049:1,2007-10-04T16:30:00Z,28.3507,-96.0058,2.0,227.4239625,16.71682386,-99999.0,'11111222,11111222,99999999' 
TABS,ioos:station:wmo:42049:1,2007-10-04T17:00:00Z,28.3507,-96.0058,2.0,217.2498881,21.39447125,-99999.0,'11111222,11111222,99999999' 
TABS,ioos:station:wmo:42049:1,2007-10-04T17:30:00Z,28.3507,-96.0058,2.0,221.6307906,19.4932655,-99999.0,'11111222,11111222,99999999' 
TABS,ioos:station:wmo:42049:1,2007-10-04T18:00:00Z,28.3507,-96.0058,2.0,222.6594286,19.56782308,-99999.0,'11111222,11111222,99999999' 